• In Belarus
  • List of Countries
  • For 7 days
  • Water Temperature
  • Satellite Maps
  • Weather Map
  • Weather Widgets
  • user-avatar
    Login

    Hourly Weather Banfora

    Today, 24 October, Tuesday

    Time Temperature Precipitation Wind Pressure Humidity
    00:00 +29°C° 0 mm 1 mps 732 mmHg 47%
    01:00 +29°C° 0 mm 1 mps 732 mmHg 50%
    02:00 +28°C° 0 mm 1 mps 732 mmHg 53%
    03:00 +27°C° 0 mm 1 mps 732 mmHg 56%
    04:00 +27°C° 0 mm 1 mps 732 mmHg 59%
    05:00 +27°C° 0 mm 1 mps 732 mmHg 61%
    06:00 +26°C° 0 mm 1 mps 732 mmHg 64%
    07:00 +28°C° 0 mm 2 mps 732 mmHg 60%
    08:00 +30°C° 0 mm 2 mps 733 mmHg 55%
    09:00 +32°C° 0 mm 2 mps 733 mmHg 51%
    10:00 +35°C° 0 mm 2 mps 733 mmHg 44%
    11:00 +37°C° 0 mm 2 mps 733 mmHg 38%
    12:00 +39°C° 0 mm 1 mps 732 mmHg 32%
    13:00 +40°C° 0 mm 1 mps 732 mmHg 30%
    14:00 +40°C° 0 mm 1 mps 731 mmHg 28%
    15:00 +38°C° 0 mm 0 mps 730 mmHg 26%
    16:00 +39°C° 0 mm 1 mps 730 mmHg 29%
    17:00 +36°C° 0 mm 1 mps 730 mmHg 32%
    18:00 +34°C° 0 mm 1 mps 730 mmHg 35%
    19:00 +33°C° 0 mm 1 mps 731 mmHg 38%
    20:00 +32°C° 0 mm 1 mps 732 mmHg 40%
    21:00 +31°C° 0 mm 1 mps 732 mmHg 43%
    22:00 +31°C° 0 mm 1 mps 732 mmHg 45%
    23:00 +30°C° 0 mm 1 mps 732 mmHg 46%

    Tomorrow, 25 October, Wednesday

    Time Temperature Precipitation Wind Pressure Humidity
    00:00 +30°C° 0 mm 1 mps 732 mmHg 48%
    01:00 +29°C° 0 mm 1 mps 732 mmHg 50%
    02:00 +29°C° 0 mm 1 mps 731 mmHg 52%
    03:00 +28°C° 0 mm 1 mps 731 mmHg 54%
    04:00 +28°C° 0 mm 1 mps 731 mmHg 58%
    05:00 +27°C° 0 mm 1 mps 731 mmHg 62%
    06:00 +27°C° 0 mm 1 mps 732 mmHg 66%
    07:00 +28°C° 0 mm 2 mps 732 mmHg 63%
    08:00 +30°C° 0 mm 2 mps 733 mmHg 60%
    09:00 +33°C° 0 mm 3 mps 733 mmHg 56%
    10:00 +35°C° 0 mm 3 mps 733 mmHg 49%
    11:00 +37°C° 0 mm 2 mps 733 mmHg 42%
    12:00 +39°C° 0 mm 2 mps 732 mmHg 35%
    13:00 +39°C° 0 mm 2 mps 731 mmHg 34%
    14:00 +39°C° 0 mm 1 mps 731 mmHg 33%
    15:00 +37°C° 0 mm 1 mps 730 mmHg 32%
    16:00 +36°C° 0 mm 1 mps 730 mmHg 35%
    17:00 +35°C° 0 mm 1 mps 730 mmHg 37%
    18:00 +34°C° 0 mm 1 mps 730 mmHg 39%
    19:00 +33°C° 0 mm 1 mps 731 mmHg 41%
    20:00 +33°C° 0 mm 1 mps 732 mmHg 43%
    21:00 +32°C° 0 mm 1 mps 733 mmHg 44%
    22:00 +31°C° 0 mm 1 mps 733 mmHg 47%
    23:00 +31°C° 0 mm 1 mps 732 mmHg 49%

    Day after tomorrow, 26 October, Thursday

    Time Temperature Precipitation Wind Pressure Humidity
    00:00 +30°C° 0 mm 1 mps 732 mmHg 52%
    01:00 +29°C° 0 mm 1 mps 732 mmHg 56%
    02:00 +29°C° 0 mm 2 mps 732 mmHg 61%
    03:00 +28°C° 0 mm 2 mps 731 mmHg 65%
    04:00 +28°C° 0 mm 2 mps 732 mmHg 69%
    05:00 +28°C° 0 mm 2 mps 732 mmHg 72%
    06:00 +27°C° 0 mm 2 mps 732 mmHg 76%
    07:00 +29°C° 0 mm 2 mps 733 mmHg 71%
    08:00 +30°C° 0 mm 3 mps 733 mmHg 67%
    09:00 +33°C° 0 mm 3 mps 734 mmHg 63%
    10:00 +35°C° 0 mm 2 mps 733 mmHg 54%
    11:00 +37°C° 0 mm 2 mps 733 mmHg 45%
    12:00 +40°C° 0 mm 1 mps 732 mmHg 36%
    13:00 +39°C° 0 mm 1 mps 732 mmHg 34%
    14:00 +39°C° 0 mm 1 mps 731 mmHg 33%
    15:00 +37°C° 0 mm 1 mps 730 mmHg 31%
    16:00 +36°C° 0 mm 1 mps 730 mmHg 34%
    17:00 +35°C° 0 mm 1 mps 731 mmHg 36%
    18:00 +34°C° 0 mm 1 mps 731 mmHg 38%
    19:00 +33°C° 0 mm 1 mps 732 mmHg 39%
    20:00 +33°C° 0 mm 1 mps 732 mmHg 40%
    21:00 +32°C° 0 mm 1 mps 733 mmHg 41%
    22:00 +32°C° 0 mm 1 mps 733 mmHg 44%
    23:00 +31°C° 0 mm 1 mps 733 mmHg 47%

    27 October, Friday

    Time Temperature Precipitation Wind Pressure Humidity
    00:00 +30°C° 0 mm 1 mps 733 mmHg 50%
    01:00 +30°C° 0 mm 1 mps 732 mmHg 54%
    02:00 +29°C° 0 mm 1 mps 732 mmHg 58%
    03:00 +28°C° 0 mm 1 mps 731 mmHg 62%
    04:00 +28°C° 0 mm 1 mps 732 mmHg 65%
    05:00 +28°C° 0 mm 1 mps 732 mmHg 69%
    06:00 +27°C° 0 mm 1 mps 733 mmHg 72%
    07:00 +29°C° 0 mm 2 mps 733 mmHg 67%
    08:00 +31°C° 0 mm 2 mps 733 mmHg 61%
    09:00 +32°C° 0 mm 2 mps 734 mmHg 56%
    10:00 +36°C° 0 mm 2 mps 733 mmHg 48%
    11:00 +39°C° 0 mm 1 mps 733 mmHg 39%
    12:00 +39°C° 0 mm 0 mps 732 mmHg 31%
    13:00 +41°C° 0 mm 1 mps 732 mmHg 31%
    14:00 +40°C° 0 mm 1 mps 731 mmHg 31%
    15:00 +38°C° 0 mm 2 mps 730 mmHg 31%
    16:00 +36°C° 0 mm 1 mps 730 mmHg 33%
    17:00 +35°C° 0 mm 1 mps 730 mmHg 35%
    18:00 +34°C° 0 mm 1 mps 731 mmHg 37%
    19:00 +33°C° 0 mm 1 mps 731 mmHg 38%
    20:00 +30°C° 0 mm 0 mps 732 mmHg 39%
    21:00 +29°C° 0 mm 0 mps 732 mmHg 41%
    22:00 +29°C° 0 mm 0 mps 732 mmHg 42%
    23:00 +28°C° 0 mm 0 mps 732 mmHg 43%

    28 October, Saturday

    Time Temperature Precipitation Wind Pressure Humidity
    00:00 +28°C° 0 mm 0 mps 732 mmHg 45%
    01:00 +27°C° 0 mm 0 mps 732 mmHg 46%
    02:00 +27°C° 0 mm 0 mps 731 mmHg 48%
    03:00 +26°C° 0 mm 0 mps 731 mmHg 50%
    04:00 +26°C° 0 mm 0 mps 731 mmHg 51%
    05:00 +27°C° 0 mm 1 mps 732 mmHg 52%
    06:00 +27°C° 0 mm 1 mps 732 mmHg 53%
    07:00 +29°C° 0 mm 1 mps 733 mmHg 48%
    08:00 +31°C° 0 mm 2 mps 733 mmHg 43%
    09:00 +34°C° 0 mm 2 mps 734 mmHg 38%
    10:00 +36°C° 0 mm 2 mps 733 mmHg 31%
    11:00 +38°C° 0 mm 3 mps 732 mmHg 25%
    12:00 +39°C° 0 mm 3 mps 732 mmHg 18%
    13:00 +40°C° 0 mm 3 mps 731 mmHg 16%
    14:00 +40°C° 0 mm 3 mps 730 mmHg 14%
    15:00 +42°C° 0 mm 3 mps 729 mmHg 11%
    16:00 +38°C° 0 mm 2 mps 730 mmHg 13%
    17:00 +36°C° 0 mm 2 mps 730 mmHg 15%
    18:00 +33°C° 0 mm 1 mps 730 mmHg 17%
    19:00 +32°C° 0 mm 1 mps 730 mmHg 18%
    20:00 +28°C° 0 mm 0 mps 731 mmHg 19%
    21:00 +27°C° 0 mm 0 mps 731 mmHg 19%
    22:00 +26°C° 0 mm 0 mps 731 mmHg 20%
    23:00 +26°C° 0 mm 0 mps 731 mmHg 21%

    29 October, Sunday

    Time Temperature Precipitation Wind Pressure Humidity
    00:00 +25°C° 0 mm 0 mps 731 mmHg 22%
    01:00 +27°C° 0 mm 1 mps 731 mmHg 26%
    02:00 +26°C° 0 mm 1 mps 731 mmHg 30%
    03:00 +25°C° 0 mm 1 mps 731 mmHg 33%
    04:00 +25°C° 0 mm 1 mps 731 mmHg 40%
    05:00 +25°C° 0 mm 1 mps 731 mmHg 46%
    06:00 +24°C° 0 mm 1 mps 732 mmHg 52%
    07:00 +26°C° 0 mm 1 mps 732 mmHg 54%
    08:00 +28°C° 0 mm 2 mps 732 mmHg 55%
    09:00 +30°C° 0 mm 2 mps 733 mmHg 56%
    10:00 +34°C° 0 mm 2 mps 732 mmHg 47%
    11:00 +36°C° 0 mm 2 mps 732 mmHg 39%
    12:00 +39°C° 0 mm 1 mps 731 mmHg 30%
    13:00 +40°C° 0 mm 1 mps 731 mmHg 27%
    14:00 +40°C° 0 mm 1 mps 730 mmHg 23%
    15:00 +38°C° 0 mm 0 mps 729 mmHg 20%
    16:00 +36°C° 0 mm 0 mps 729 mmHg 23%
    17:00 +33°C° 0 mm 0 mps 729 mmHg 25%
    18:00 +31°C° 0 mm 0 mps 729 mmHg 28%
    19:00 +30°C° 0 mm 0 mps 730 mmHg 29%
    20:00 +29°C° 0 mm 0 mps 730 mmHg 30%
    21:00 +28°C° 0 mm 0 mps 731 mmHg 32%
    22:00 +28°C° 0 mm 0 mps 731 mmHg 33%
    23:00 +29°C° 0 mm 1 mps 731 mmHg 34%

    30 October, Monday

    Time Temperature Precipitation Wind Pressure Humidity
    00:00 +29°C° 0 mm 1 mps 731 mmHg 35%
    01:00 +28°C° 0 mm 1 mps 730 mmHg 39%
    02:00 +28°C° 0 mm 1 mps 730 mmHg 43%
    03:00 +27°C° 0 mm 1 mps 730 mmHg 47%
    04:00 +27°C° 0 mm 1 mps 730 mmHg 53%
    05:00 +26°C° 0 mm 1 mps 731 mmHg 59%
    06:00 +26°C° 0 mm 1 mps 731 mmHg 65%
    07:00 +28°C° 0 mm 2 mps 731 mmHg 62%
    08:00 +30°C° 0 mm 2 mps 732 mmHg 59%
    09:00 +32°C° 0 mm 2 mps 732 mmHg 57%
    10:00 +35°C° 0 mm 2 mps 732 mmHg 47%
    11:00 +37°C° 0 mm 1 mps 731 mmHg 38%
    12:00 +41°C° 0 mm 1 mps 731 mmHg 28%
    13:00 +41°C° 0 mm 1 mps 730 mmHg 26%
    14:00 +41°C° 0 mm 1 mps 730 mmHg 24%
    15:00 +41°C° 0 mm 1 mps 729 mmHg 22%
    16:00 +39°C° 0 mm 1 mps 729 mmHg 25%
    17:00 +36°C° 0 mm 1 mps 729 mmHg 28%
    18:00 +34°C° 0 mm 1 mps 729 mmHg 32%
    19:00 +33°C° 0 mm 1 mps 730 mmHg 34%
    20:00 +32°C° 0 mm 1 mps 730 mmHg 37%
    21:00 +29°C° 0 mm 0 mps 730 mmHg 40%
    22:00 +31°C° 0 mm 1 mps 731 mmHg 42%
    23:00 +30°C° 0 mm 1 mps 731 mmHg 45%
    Show more